VA2DG-13 Weather Reports


time (UTC)temp
C
wind
direction
speed
KPH
gust
KPH
rain 1hr
cm
rain 24hr
cm
rain mn
cm
humidity
%
barometer
mb
20260510214006 15 207 0.0 0.0 0.00 0.08 0.08 35 1011.0
20260510213506 15 219 0.0 0.0 0.00 0.08 0.08 34 1010.9
20260510213006 15 228 0.0 0.0 0.00 0.08 0.08 34 1011.0
20260510212505 15 216 0.0 0.0 0.00 0.08 0.08 33 1010.8
20260510212005 15 217 0.0 0.0 0.00 0.08 0.08 33 1010.8
20260510211506 15 232 0.0 0.0 0.00 0.08 0.08 32 1010.5
20260510211005 15 208 0.0 0.0 0.00 0.08 0.08 33 1010.4
20260510205505 15 211 0.0 0.0 0.00 0.08 0.08 35 1010.2
20260510204505 15 204 0.0 0.0 0.00 0.08 0.08 34 1010.2
20260510204006 15 215 0.0 0.0 0.00 0.08 0.08 35 1010.2
20260510203506 15 210 0.0 0.0 0.00 0.08 0.08 34 1010.0
20260510203006 15 213 0.0 0.0 0.00 0.08 0.08 33 1010.0
20260510202505 15 219 0.0 0.0 0.00 0.08 0.08 33 1010.0
20260510202006 16 232 0.0 0.0 0.00 0.08 0.08 35 1009.8
20260510201505 16 222 0.0 0.0 0.00 0.08 0.08 35 1009.9
20260510200505 16 214 0.0 0.0 0.00 0.08 0.08 35 1009.7
20260510195505 16 224 0.0 0.0 0.00 0.08 0.08 35 1009.5
20260510194505 16 212 0.0 0.0 0.00 0.08 0.08 34 1009.5
20260510194005 16 215 0.0 0.0 0.00 0.08 0.08 34 1009.5
20260510193505 16 214 0.0 0.0 0.00 0.08 0.08 34 1009.5
20260510193006 16 241 0.0 0.0 0.00 0.08 0.08 33 1009.4
20260510192006 16 233 0.0 0.0 0.00 0.08 0.08 33 1009.2
20260510191505 16 211 0.0 0.0 0.00 0.08 0.08 33 1009.2
20260510190505 17 213 0.0 0.0 0.00 0.08 0.08 32 1009.2
20260510185505 16 216 0.0 0.0 0.00 0.08 0.08 33 1009.0
20260510185006 16 212 0.0 0.0 0.00 0.08 0.08 33 1009.1
20260510184505 16 222 0.0 0.0 0.00 0.08 0.08 33 1009.0
20260510184006 16 223 0.0 0.0 0.00 0.08 0.08 34 1008.9
20260510183505 16 233 0.0 0.0 0.00 0.08 0.08 34 1008.9
20260510183006 16 212 0.0 0.0 0.00 0.08 0.08 33 1008.9
20260510182505 16 227 0.0 0.0 0.00 0.08 0.08 33 1008.9
20260510182006 16 236 0.0 0.0 0.00 0.08 0.08 34 1008.9
20260510181505 16 211 0.0 0.0 0.00 0.08 0.08 34 1008.8
20260510180506 16 215 0.0 0.0 0.00 0.08 0.08 35 1008.7
20260510180005 16 210 0.0 0.0 0.00 0.08 0.08 35 1008.6
20260510175505 16 229 0.0 0.0 0.00 0.08 0.08 34 1008.8
20260510175005 16 245 0.0 0.0 0.00 0.08 0.08 35 1008.7
20260510173505 16 245 0.0 0.0 0.00 0.08 0.08 34 1008.7
20260510173005 16 219 0.0 0.0 0.00 0.08 0.08 35 1008.8
20260510172006 16 214 0.0 0.0 0.00 0.08 0.08 35 1008.6
20260510171505 16 250 0.0 0.0 0.00 0.08 0.08 36 1008.8
20260510171006 16 225 0.0 0.0 0.00 0.08 0.08 36 1008.6
20260510170505 16 226 0.0 0.0 0.00 0.08 0.08 36 1008.6
20260510170005 16 228 0.0 0.0 0.00 0.08 0.08 37 1008.6
20260510165505 16 229 0.0 0.0 0.00 0.08 0.08 37 1008.5
20260510165006 16 241 0.0 0.0 0.00 0.08 0.08 38 1008.5
20260510164505 15 234 0.0 0.0 0.00 0.08 0.08 38 1008.4
20260510164005 16 224 0.0 0.0 0.00 0.08 0.08 37 1008.5
20260510163505 16 218 0.0 0.0 0.00 0.08 0.08 39 1008.4
20260510163006 16 235 0.0 0.0 0.00 0.08 0.08 38 1008.4
20260510162505 16 261 0.0 0.0 0.00 0.08 0.08 39 1008.3
20260510162005 16 241 0.0 0.0 0.00 0.08 0.08 39 1008.3
20260510161505 16 232 0.0 0.0 0.00 0.08 0.08 39 1008.3
20260510161006 15 250 0.0 0.0 0.00 0.08 0.08 40 1008.2
20260510160505 15 219 0.0 0.0 0.00 0.08 0.08 41 1008.2
20260510160005 15 226 0.0 0.0 0.00 0.08 0.08 42 1008.2
20260510155505 15 230 0.0 0.0 0.00 0.08 0.08 43 1008.3
20260510155006 15 239 0.0 0.0 0.00 0.08 0.08 44 1008.3
20260510153505 15 254 0.0 0.0 0.00 0.08 0.08 44 1008.1
20260510153005 15 235 0.0 0.0 0.00 0.08 0.08 44 1008.1
20260510152505 15 224 0.0 0.0 0.00 0.08 0.08 44 1008.1
20260510151505 15 235 0.0 0.0 0.00 0.08 0.08 45 1008.1
20260510151005 15 230 0.0 0.0 0.00 0.08 0.08 44 1008.2
20260510150505 15 235 0.0 0.0 0.00 0.08 0.08 45 1008.0
20260510145505 15 240 0.0 0.0 0.00 0.08 0.08 45 1008.1
20260510145005 15 246 0.0 0.0 0.00 0.08 0.08 46 1007.9
20260510144505 15 234 0.0 0.0 0.00 0.08 0.08 47 1008.1
20260510144005 15 240 0.0 0.0 0.00 0.08 0.08 49 1008.0
20260510143505 14 245 0.0 0.0 0.00 0.08 0.08 50 1008.1
20260510143005 14 236 0.0 0.0 0.00 0.08 0.08 51 1008.0
20260510142505 14 233 0.0 0.0 0.00 0.08 0.08 53 1007.9
20260510142006 13 249 0.0 0.0 0.00 0.08 0.08 53 1007.9
20260510141505 13 237 0.0 0.0 0.00 0.08 0.08 54 1007.8
20260510141005 13 242 0.0 0.0 0.00 0.08 0.08 56 1007.8
20260510140505 13 242 0.0 0.0 0.00 0.08 0.08 55 1007.7
20260510140005 13 250 0.0 0.0 0.00 0.08 0.08 55 1007.8
20260510135505 13 252 0.0 0.0 0.00 0.08 0.08 55 1007.6
20260510135006 13 249 0.0 0.0 0.00 0.08 0.08 59 1007.6
20260510134505 13 241 0.0 0.0 0.00 0.08 0.08 60 1007.6
20260510134006 13 230 0.0 0.0 0.00 0.08 0.08 61 1007.6
20260510133506 13 235 0.0 0.0 0.00 0.08 0.08 62 1007.6
20260510133005 13 227 0.0 0.0 0.00 0.08 0.08 61 1007.7
20260510132504 13 228 0.0 0.0 0.00 0.08 0.08 61 1007.6
20260510132005 13 238 0.0 0.0 0.00 0.08 0.08 62 1007.6
20260510131505 13 234 0.0 0.0 0.00 0.08 0.08 62 1007.6
20260510131005 13 238 0.0 0.0 0.00 0.08 0.08 61 1007.5
20260510130505 13 231 0.0 0.0 0.00 0.08 0.08 61 1007.4
20260510130005 13 232 0.0 0.0 0.00 0.08 0.08 64 1007.4
20260510125505 13 211 0.0 0.0 0.00 0.08 0.08 64 1007.3
20260510125006 13 219 0.0 0.0 0.00 0.08 0.08 65 1007.2
20260510124505 12 214 0.0 0.0 0.00 0.08 0.08 66 1007.1
20260510124006 12 219 0.0 0.0 0.00 0.08 0.08 67 1007.2
20260510122505 12 228 0.0 0.0 0.00 0.08 0.08 67 1006.9
20260510122006 12 233 0.0 0.0 0.00 0.08 0.08 69 1007.1
20260510121505 12 216 0.0 0.0 0.00 0.08 0.08 73 1007.0
20260510121005 12 219 0.0 0.0 0.00 0.08 0.08 78 1006.9
20260510120005 12 209 0.0 0.0 0.00 0.08 0.08 83 1006.8
20260510115006 11 210 0.0 0.0 0.00 0.08 0.08 83 1006.7
20260510114505 11 190 0.0 0.0 0.00 0.08 0.08 83 1006.5
20260510114006 11 205 0.0 0.0 0.00 0.08 0.08 83 1006.8
20260510113505 11 205 0.0 0.0 0.00 0.08 0.08 83 1006.7
20260510113005 11 190 0.0 0.0 0.00 0.08 0.08 83 1006.7
20260510112505 11 173 0.0 0.0 0.00 0.08 0.08 83 1006.5
20260510112005 11 176 0.0 0.0 0.00 0.08 0.08 83 1006.7
20260510111504 11 182 0.0 0.0 0.00 0.08 0.08 84 1006.6
20260510110505 11 175 0.0 0.0 0.00 0.08 0.08 84 1006.3
20260510110005 11 172 0.0 0.0 0.00 0.08 0.08 84 1006.2
20260510105505 11 155 0.0 0.0 0.00 0.08 0.08 83 1006.0
20260510105005 11 163 0.0 0.0 0.00 0.08 0.08 83 1006.0
20260510104505 11 166 0.0 0.0 0.00 0.08 0.08 83 1006.0
20260510104005 11 167 0.0 0.0 0.00 0.08 0.08 84 1005.9
20260510103505 11 159 0.0 0.0 0.00 0.08 0.08 83 1005.7
20260510103005 11 181 0.0 0.0 0.00 0.08 0.08 84 1005.7
20260510102504 10 173 0.0 0.0 0.00 0.08 0.08 84 1005.8
20260510102005 10 177 0.0 0.0 0.00 0.08 0.08 84 1005.7
20260510101505 10 188 0.0 0.0 0.00 0.08 0.08 84 1005.7
20260510101006 10 194 0.0 0.0 0.00 0.08 0.08 84 1005.7
20260510100505 10 194 0.0 0.0 0.00 0.08 0.08 84 1005.4
20260510100005 10 180 0.0 0.0 0.00 0.08 0.08 84 1005.3
20260510095504 10 194 0.0 0.0 0.00 0.08 0.08 84 1005.2
20260510095005 10 191 0.0 0.0 0.00 0.08 0.08 84 1005.2
20260510094504 10 186 0.0 0.0 0.00 0.08 0.08 84 1005.2
20260510094006 10 190 0.0 0.0 0.00 0.08 0.08 84 1005.1
20260510093505 10 187 0.0 0.0 0.00 0.08 0.08 83 1005.0
20260510093006 10 186 0.0 0.0 0.00 0.08 0.08 83 1005.0
20260510092505 10 173 0.0 0.0 0.00 0.08 0.08 83 1004.9
20260510092005 10 188 0.0 0.0 0.00 0.08 0.08 83 1005.0
20260510091504 10 195 0.0 0.0 0.00 0.08 0.08 83 1005.0
20260510091005 10 196 0.0 0.0 0.00 0.08 0.08 82 1004.8
20260510090505 10 180 0.0 0.0 0.00 0.08 0.08 83 1004.8
20260510090005 10 185 0.0 0.0 0.00 0.08 0.08 82 1004.6
20260510085505 10 167 0.0 0.0 0.00 0.08 0.08 83 1004.4
20260510084504 10 175 0.0 0.0 0.00 0.08 0.08 83 1004.7
20260510084005 10 166 0.0 0.0 0.00 0.08 0.08 83 1004.6
20260510083506 10 166 0.0 0.0 0.00 0.08 0.08 83 1004.5
20260510083005 10 172 0.0 0.0 0.00 0.08 0.08 83 1004.5
20260510082504 10 168 0.0 0.0 0.00 0.08 0.08 83 1004.5
20260510082005 10 172 0.0 0.0 0.00 0.08 0.08 83 1004.6
20260510081005 10 181 0.0 0.0 0.00 0.08 0.08 83 1004.6
20260510080505 10 166 0.0 0.0 0.00 0.08 0.08 82 1004.7
20260510080005 10 177 0.0 0.0 0.00 0.08 0.08 83 1004.6
20260510075505 10 169 0.0 0.0 0.00 0.08 0.08 82 1004.7
20260510075005 11 174 0.0 0.0 0.00 0.08 0.08 82 1004.7
20260510074504 11 185 0.0 0.0 0.00 0.08 0.08 82 1004.5
20260510074005 11 179 0.0 0.0 0.00 0.08 0.08 82 1004.6
20260510073505 11 170 0.0 0.0 0.00 0.08 0.08 82 1004.6
20260510073005 11 170 0.0 0.0 0.00 0.08 0.08 82 1004.5
20260510072504 11 174 0.0 0.0 0.00 0.08 0.08 82 1004.3
20260510072005 11 173 0.0 0.0 0.03 0.08 0.08 82 1004.4
20260510071505 11 175 0.0 0.0 0.03 0.08 0.08 82 1004.3
20260510071005 11 164 0.0 0.0 0.03 0.08 0.08 82 1004.3
20260510070505 11 163 0.0 0.0 0.03 0.08 0.08 82 1004.3
20260510070005 11 159 0.0 0.0 0.03 0.08 0.08 82 1004.2
20260510065504 11 157 0.0 0.0 0.03 0.08 0.08 82 1004.2
20260510065005 11 158 0.0 0.0 0.03 0.08 0.08 82 1004.2
20260510064505 11 165 0.0 0.0 0.05 0.08 0.08 82 1004.0
20260510064005 11 160 0.0 0.0 0.05 0.08 0.08 82 1004.0
20260510063505 11 160 0.0 0.0 0.08 0.08 0.08 82 1004.1
20260510063005 11 154 0.0 0.0 0.08 0.08 0.08 82 1004.1
20260510062505 11 162 0.0 0.0 0.08 0.08 0.08 81 1004.3
20260510062005 11 151 0.0 0.0 0.05 0.05 0.05 81 1004.3
20260510061005 11 157 0.0 0.0 0.05 0.05 0.05 81 1004.3
20260510060505 11 159 0.0 0.0 0.05 0.05 0.05 81 1004.3
20260510060006 11 153 0.0 0.0 0.05 0.05 0.05 80 1004.1
20260510055505 11 152 0.0 0.0 0.05 0.05 0.05 80 1004.3
20260510055005 11 162 0.0 0.0 0.05 0.05 0.05 79 1004.4
20260510054504 11 169 0.0 0.0 0.03 0.03 0.03 78 1004.5
20260510053005 11 176 0.0 0.0 0.00 0.00 0.00 75 1004.4
20260510052504 11 170 0.0 0.0 0.00 0.00 0.00 75 1004.4
20260510052005 11 174 0.0 0.0 0.00 0.00 0.00 74 1004.3
20260510051504 11 169 0.0 0.0 0.00 0.00 0.00 74 1004.4
20260510051006 11 153 0.0 0.0 0.00 0.00 0.00 73 1004.2
20260510050505 11 151 0.0 0.0 0.00 0.00 0.00 73 1004.2
20260510050012 11 156 0.0 0.0 0.00 0.00 0.00 73 1004.2
20260510045512 11 162 0.0 0.0 0.00 0.00 0.00 73 1004.2
20260510045012 11 148 0.0 0.0 0.00 0.00 0.00 73 1004.3
20260510044511 11 154 0.0 0.0 0.00 0.00 0.00 73 1004.5
20260510044011 11 143 0.0 0.0 0.00 0.00 0.00 73 1004.2
20260510043511 11 150 0.0 0.0 0.00 0.00 0.00 73 1004.1
20260510043012 11 143 0.0 0.0 0.00 0.00 0.00 74 1004.0
20260510042511 11 142 0.0 0.0 0.00 0.00 0.00 74 1004.0
20260510042012 11 134 0.0 0.0 0.00 0.00 0.00 74 1003.9
20260510041511 10 137 0.0 0.0 0.00 0.00 0.00 74 1004.0
20260510041011 10 137 0.0 0.0 0.00 0.00 0.00 73 1004.0
20260510040512 10 134 0.0 0.0 0.00 0.00 0.00 73 1003.9
20260510040011 10 132 0.0 0.0 0.00 0.00 0.00 73 1004.0
20260510035012 10 131 0.0 0.0 0.00 0.00 0.00 73 1004.0
20260510034511 10 133 0.0 0.0 0.00 0.00 0.00 73 1004.1
20260510033512 10 139 0.0 0.0 0.00 0.00 0.00 72 1004.2
20260510032511 10 132 0.0 0.0 0.00 0.00 0.00 72 1004.3
20260510032011 10 134 0.0 0.0 0.00 0.00 0.00 72 1004.3
20260510031511 10 118 0.0 0.0 0.00 0.00 0.00 72 1004.3
20260510031012 10 117 0.0 0.0 0.00 0.00 0.00 71 1004.2
20260510030511 11 120 0.0 0.0 0.00 0.00 0.00 71 1004.3
20260510030011 11 125 0.0 0.0 0.00 0.00 0.00 71 1004.5
20260510025511 11 145 0.0 0.0 0.00 0.00 0.00 70 1004.6
20260510025011 11 145 0.0 0.0 0.00 0.00 0.00 70 1004.7
20260510024511 11 148 0.0 0.0 0.00 0.00 0.00 70 1004.8
20260510024011 11 151 0.0 0.0 0.00 0.00 0.00 70 1004.8
20260510023512 11 146 0.0 0.0 0.00 0.00 0.00 70 1004.8
20260510023011 11 152 0.0 0.0 0.00 0.00 0.00 70 1004.9
20260510022511 11 147 0.0 0.0 0.00 0.00 0.00 70 1005.1
20260510022011 11 147 0.0 0.0 0.00 0.00 0.00 70 1005.1
20260510021511 11 152 0.0 0.0 0.00 0.00 0.00 71 1005.0
20260510020511 11 148 0.0 0.0 0.00 0.00 0.00 71 1005.0
20260510020011 11 151 0.0 0.0 0.00 0.00 0.00 71 1005.2
20260510015510 11 159 0.0 0.0 0.00 0.00 0.00 71 1005.3
20260510015011 11 161 0.0 0.0 0.00 0.00 0.00 71 1005.2
20260510013511 11 143 0.0 0.0 0.00 0.00 0.00 70 1005.1
20260510013011 11 157 0.0 0.0 0.00 0.00 0.00 70 1005.1
20260510012012 11 153 0.0 0.0 0.00 0.00 0.00 69 1005.4
20260510011511 11 143 0.0 0.0 0.00 0.00 0.00 69 1005.5
20260510011012 11 151 0.0 0.0 0.00 0.00 0.00 68 1005.2
20260510010511 11 143 0.0 0.0 0.00 0.00 0.00 68 1005.3
20260510010011 11 137 0.0 0.0 0.00 0.00 0.00 68 1005.1
20260510005511 11 141 0.0 0.0 0.00 0.00 0.00 67 1005.1
20260510005011 12 147 0.0 0.0 0.00 0.00 0.00 67 1005.1
20260510004511 12 153 0.0 0.0 0.00 0.00 0.00 66 1005.3
20260510003511 12 144 0.0 0.0 0.00 0.00 0.00 66 1005.1
20260510002511 12 155 0.0 0.0 0.00 0.00 0.00 65 1005.2
20260510001511 12 139 0.0 0.0 0.00 0.00 0.00 65 1005.3
20260510001011 12 138 0.0 0.0 0.00 0.00 0.00 64 1005.1
20260510000511 12 140 0.0 0.0 0.00 0.00 0.00 64 1005.1
20260509235511 12 143 0.0 0.0 0.00 0.00 0.00 63 1005.2
20260509235011 12 155 0.0 0.0 0.00 0.00 0.00 63 1005.1
20260509234511 12 146 0.0 0.0 0.00 0.00 0.00 63 1005.1
20260509234011 12 150 0.0 0.0 0.00 0.00 0.00 63 1005.1
20260509233511 12 148 0.0 0.0 0.00 0.00 0.00 62 1005.0
20260509232511 12 151 0.0 0.0 0.00 0.00 0.00 61 1005.2
20260509232011 12 144 0.0 0.0 0.00 0.00 0.00 60 1005.4
20260509231511 13 150 0.0 0.0 0.00 0.00 0.00 59 1005.2
20260509231012 13 147 0.0 0.0 0.00 0.00 0.00 58 1005.2
20260509230011 13 160 0.0 0.0 0.00 0.00 0.00 56 1005.4
20260509224511 13 128 0.0 0.0 0.00 0.00 0.00 54 1005.5
20260509224011 13 143 0.0 0.0 0.00 0.00 0.00 53 1005.4
20260509223511 14 131 0.0 0.0 0.00 0.00 0.00 53 1005.4
20260509223012 14 156 0.0 0.0 0.00 0.00 0.00 53 1005.3
20260509222511 14 160 0.0 0.0 0.00 0.00 0.00 53 1005.3
20260509222011 14 155 0.0 0.0 0.00 0.00 0.00 52 1005.3
20260509221511 14 142 0.0 0.0 0.00 0.00 0.00 52 1005.3
20260509221011 15 145 0.0 0.0 0.00 0.00 0.00 52 1005.4
20260509220011 15 163 0.0 0.0 0.00 0.00 0.00 51 1005.3
20260509215511 15 140 0.0 0.0 0.00 0.00 0.00 51 1005.4
20260509215011 15 159 0.0 0.0 0.00 0.00 0.00 49 1005.4